#timestamp,LO_Frequency,Hit,StdDev 
1570352415.0,286047037.6,Y
1570352415.9,286047037.6,P
1570352435.8,286047000.0,N
1570352455.6,286046998.4,N
1570352475.4,286046999.4,N
1570352495.3,286046996.0,N
1570352515.1,286046997.4,N
1570352535.9,286046997.0,N
1570352555.7,286046999.4,N
1570352575.5,286046999.8,N
1570352595.4,286047004.1,N
1570352615.2,286047002.8,N
1570352635.0,286047002.2,N
1570352635.9,286047002.2,N
1570352655.8,286047002.3,N
1570352675.6,286047008.5,N
1570352695.5,286047015.3,N
1570352715.3,286047012.2,N
1570352735.1,286047011.2,N
1570352755.9,286047015.5,N
1570352775.7,286047016.1,N
1570352795.6,286047015.9,N
1570352815.4,286047013.7,N
1570352835.2,286047007.2,N
1570352855.1,286047005.0,N
1570352856.0,286047005.0,N
1570352875.8,286046999.7,N
1570352895.6,286046999.3,N
1570352915.5,286046998.1,N
1570352935.3,286046990.6,N
1570352955.2,286046989.0,N
1570352975.9,286046984.9,N
1570352995.7,286046981.3,N
1570353015.6,286046979.1,N
1570353035.4,286046983.3,N
1570353055.2,286046984.3,N
1570353075.1,286046984.4,N
1570353076.0,286046984.4,N
1570353095.8,286046986.8,N
1570353145.7,286046993.9,E
1570353155.6,286046997.8,N
1570353175.5,286047003.9,P
1570353195.3,286047000.1,N
1570353215.1,286047004.2,N
1570353235.9,286046997.4,N
1570353255.7,286046995.8,N
1570353275.5,286046990.7,N
1570353295.4,286046986.4,Y
1570353315.2,286046982.7,P
1570353335.1,286046981.3,N
1570353336.0,286046981.3,N
1570353355.8,286046988.3,N
1570353375.6,286046981.8,N
1570353395.5,286046981.6,N
1570353415.3,286046981.1,Y
1570353435.2,286046989.4,P
1570353455.9,286046989.1,P
1570353475.7,286046990.0,P
1570353495.6,286046990.2,Y
1570353515.4,286047007.8,P
1570353535.2,286047000.6,N
1570353555.1,286046994.8,N
1570353556.0,286046994.8,N
1570353575.8,286046991.8,N
1570353595.7,286046989.8,N
1570353615.5,286046989.7,N
1570353635.3,286046990.3,N
1570353655.2,286046992.4,N
1570353675.0,286046991.9,N
1570353675.9,286046991.9,N
1570353695.7,286046990.7,N
1570353715.6,286046992.4,N
1570353735.4,286046998.0,N
1570353755.3,286046998.8,N
1570353775.1,286046994.6,N
1570353776.0,286046994.6,N
1570353795.8,286046995.0,N
1570353815.7,286046993.4,N
1570353835.5,286046994.9,N
1570353855.3,286046991.5,N
1570353875.2,286046975.2,Y
1570353895.0,286046974.9,P
1570353895.9,286046974.9,N
1570353915.8,286046983.4,N
1570353935.6,286046984.5,N
1570353955.4,286046987.9,N
1570353975.3,286046988.5,N
1570353995.1,286046989.8,N
1570354015.9,286046979.7,Y
1570354035.7,286046991.8,P
1570354055.5,286046991.4,N
1570354075.4,286046988.7,P
1570354095.2,286046983.9,Y
1570354115.0,286046990.4,P
1570354115.9,286046990.4,P
1570354135.8,286046992.9,P
1570354155.6,286046994.4,Y
1570354175.5,286047001.4,P
1570354195.3,286047006.2,N
1570354215.1,286047007.2,N
1570354235.9,286047007.5,N
1570354255.7,286047009.1,N
1570354275.6,286047011.9,N
1570354295.4,286047013.1,N
1570354315.2,286047015.3,N
1570354335.1,286047014.8,N
1570354336.0,286047014.8,N
1570354355.8,286047018.8,N
1570354375.6,286047024.8,Y
1570354395.5,286047016.4,P
1570354415.3,286047015.7,P
1570354435.2,286047015.8,P
1570354455.9,286047021.8,Y
1570354475.7,286047005.9,P
1570354495.6,286047005.8,N
1570354515.4,286047007.4,N
1570354535.2,286047004.5,N
1570354555.1,286047008.7,N
1570354556.0,286047008.7,N
1570354575.8,286047012.2,Y
1570354595.7,286047000.0,P
1570354615.5,286047001.1,N
1570354635.3,286047001.0,N
1570354655.2,286046998.4,N
1570354675.0,286046998.8,N
1570354675.9,286046998.8,N
1570354695.8,286046998.5,N
1570354715.6,286046999.2,N
1570354735.4,286046992.1,N
1570354755.3,286046988.7,Y
1570354775.1,286046991.4,P
1570354795.9,286046997.6,N
1570354815.7,286046998.2,N
1570354835.5,286047002.7,N
1570354855.4,286046992.0,N
1570354875.2,286046984.2,Y
1570354895.0,286046984.8,P
1570354895.9,286046984.8,N
1570354915.8,286046981.7,P
1570354935.6,286046984.5,N
1570354955.5,286046987.5,N
1570354975.3,286046993.1,N
1570354995.2,286046999.2,N
1570355015.9,286046997.2,N
1570355035.7,286046999.2,N
1570355055.6,286046998.6,N
1570355075.4,286046998.2,N
1570355095.3,286046999.5,N
1570355115.1,286046996.4,N
1570355116.0,286046996.4,N
1570355135.8,286046994.5,N
1570355155.7,286046992.6,N
1570355175.5,286046991.1,N
1570355195.3,286046985.1,N
1570355215.2,286046980.1,Y
1570355235.0,286046976.2,P
1570355235.9,286046976.2,N
1570355255.8,286046970.3,P
1570355275.6,286046973.3,Y
1570355295.4,286046999.4,P
1570355315.3,286047002.5,N
1570355335.1,286047005.3,N
1570355355.9,286047004.8,N
1570355375.7,286047006.1,N
1570355395.5,286047004.9,N
1570355415.4,286047006.5,N
1570355435.2,286047009.2,N
1570355455.1,286047009.0,N
1570355456.0,286047009.0,N
1570355475.8,286047010.4,N
1570355495.6,286047001.4,N
1570355515.5,286047002.5,N
1570355535.3,286047003.0,N
1570355555.1,286047007.8,N
1570355575.9,286047013.6,N
1570355595.7,286047018.0,N
1570355615.6,286047015.2,N
1570355635.4,286047010.2,N
1570355655.2,286047013.5,N
1570355675.1,286047008.0,N
1570355676.0,286047008.0,N
1570355695.8,286046996.2,N
1570355715.6,286046990.4,N
1570355735.5,286046988.5,N
1570355755.3,286046986.5,N
1570355775.2,286046985.5,N
1570355795.9,286046986.9,N
1570355815.7,286046997.6,N
1570355835.6,286046994.4,N
1570355855.4,286046984.5,N
1570355875.2,286046986.1,N
1570355895.1,286046992.2,N
1570355896.0,286046992.2,N
1570355915.8,286046995.6,N
1570355935.7,286047002.8,N
1570355955.5,286047003.7,N
1570355975.4,286047004.5,N
1570355995.2,286047005.4,N
